period_start,C,m1,H,J0,J1,J2,J3,J4,J5,JA,JB,JC,JD,JJ,JK,JN,#
2014-03-18 00:00:25,0.20,12.62,0.00,24.67,29.77,32.59,6.00,32.54,1017.61,2026.00,946.87,1393.00,1514.31,349.36,322.48,31.82,0000 0000 0000 0000 000000
2014-03-18 00:01:25,0.29,12.62,0.00,24.67,29.77,32.59,6.00,32.42,1017.61,2026.00,946.49,1392.99,1514.12,350.10,322.56,31.83,0000 0000 0000 0000 000000
2014-03-18 00:02:26,0.47,12.63,0.00,24.69,29.77,32.57,5.93,32.54,1017.61,2026.00,946.23,1392.96,1514.05,349.86,322.23,31.84,0000 0000 0000 0000 000000
2014-03-18 00:03:26,0.31,12.63,0.00,24.69,29.77,32.60,6.06,32.42,1017.60,2026.00,946.10,1392.92,1514.02,350.57,322.52,31.84,0000 0000 0000 0000 000000
2014-03-18 00:04:26,0.20,12.63,0.00,24.68,29.77,32.60,6.05,32.33,1017.60,2026.00,946.04,1392.66,1514.00,350.01,322.55,31.85,0000 0000 0000 0000 000000
2014-03-18 00:05:26,0.29,12.63,0.00,24.67,29.77,32.60,5.97,32.50,1017.62,2026.00,946.01,1392.34,1513.99,349.56,321.90,31.85,0000 0000 0000 0000 000000
2014-03-18 00:06:27,0.27,12.63,0.00,24.67,29.77,32.60,5.97,32.29,1017.62,2026.00,946.00,1392.15,1513.97,349.20,321.29,31.86,0000 0000 0000 0000 000000
2014-03-18 00:07:27,0.17,12.64,0.00,24.67,29.77,32.61,6.07,32.92,1017.61,2026.00,945.94,1392.05,1513.83,351.14,323.52,31.87,0000 0000 0000 0000 000000
2014-03-18 00:08:27,0.17,12.64,0.00,24.67,29.77,32.62,6.06,32.63,1017.60,2026.00,945.85,1392.02,1513.57,350.26,322.27,31.87,0000 0000 0000 0000 000000
2014-03-18 00:09:27,0.33,12.64,0.00,24.67,29.77,32.61,6.08,32.63,1017.61,2026.00,945.52,1392.00,1513.27,350.38,323.10,31.88,0000 0000 0000 0000 000000
2014-03-18 00:10:28,0.46,12.64,0.00,24.67,29.77,32.61,6.09,32.63,1017.60,2026.00,945.20,1392.00,1513.10,350.91,323.92,31.88,0000 0000 0000 0000 000000
2014-03-18 00:11:28,0.39,12.64,0.00,24.67,29.77,32.60,6.05,32.71,1017.60,2026.00,945.07,1392.00,1513.03,350.78,323.18,31.89,0000 0000 0000 0000 000000
2014-03-18 00:12:28,0.16,12.64,0.00,24.67,29.77,32.60,5.94,32.58,1017.61,2026.00,945.02,1391.93,1513.01,349.55,322.05,31.90,0000 0000 0000 0000 000000
2014-03-18 00:13:28,0.12,12.65,0.00,24.68,29.77,32.61,5.95,32.46,1017.62,2026.00,945.00,1391.70,1513.00,350.38,322.92,31.90,0000 0000 0000 0000 000000
2014-03-18 00:14:29,0.21,12.65,0.00,24.69,29.77,32.62,6.03,32.58,1017.62,2026.00,944.94,1391.46,1512.96,349.93,322.54,31.91,0000 0000 0000 0000 000000
2014-03-18 00:15:29,0.30,12.65,0.00,24.70,29.77,32.62,5.92,32.29,1017.59,2026.00,944.73,1391.20,1512.85,349.54,322.15,31.91,0000 0000 0000 0000 000000
2014-03-18 00:16:29,0.51,12.65,0.00,24.70,29.77,32.62,6.02,32.58,1017.61,2026.00,944.38,1391.07,1512.57,349.81,322.47,31.92,0000 0000 0000 0000 000000
2014-03-18 00:17:29,0.53,12.65,0.00,24.70,29.77,32.59,6.04,32.63,1017.60,2026.00,944.15,1391.02,1512.23,350.67,323.01,31.92,0000 0000 0000 0000 000000
2014-03-18 00:18:30,0.44,12.66,0.00,24.70,29.77,32.62,5.85,32.42,1017.60,2026.00,944.05,1391.00,1512.09,350.76,322.72,31.93,0000 0000 0000 0000 000000
2014-03-18 00:19:30,0.18,12.66,0.00,24.71,29.77,32.61,6.11,32.46,1017.60,2026.00,944.02,1391.00,1512.03,350.97,322.81,31.94,0000 0000 0000 0000 000000
2014-03-18 00:20:30,0.07,12.66,0.00,24.72,29.77,32.60,6.11,32.46,1017.62,2026.00,944.00,1390.98,1512.01,350.66,322.79,31.94,0000 0000 0000 0000 000000
2014-03-18 00:21:31,0.04,12.66,0.00,24.72,29.77,32.60,5.95,32.38,1017.61,2026.00,943.97,1390.88,1512.00,350.09,322.22,31.95,0000 0000 0000 0000 000000
2014-03-18 00:22:31,0.14,12.66,0.00,24.72,29.77,32.58,6.15,32.71,1017.60,2026.00,943.80,1390.60,1511.96,351.33,323.59,31.95,0000 0000 0000 0000 000000
2014-03-18 00:23:31,0.45,12.66,0.00,24.72,29.77,32.61,5.88,32.38,1017.60,2026.00,943.41,1390.27,1511.85,348.78,321.28,31.96,0000 0000 0000 0000 000000
2014-03-18 00:24:31,0.67,12.67,0.00,24.72,29.77,32.60,6.08,32.54,1017.59,2026.00,943.16,1390.11,1511.55,350.56,323.01,31.97,0000 0000 0000 0000 000000
2014-03-18 00:25:32,0.55,12.67,0.00,24.72,29.77,32.60,5.95,32.63,1017.60,2026.00,943.06,1390.05,1511.25,349.59,322.46,31.97,0000 0000 0000 0000 000000
2014-03-18 00:26:32,0.28,12.67,0.00,24.72,29.77,32.58,5.97,32.46,1017.60,2026.00,943.02,1390.01,1511.11,349.47,321.92,31.98,0000 0000 0000 0000 000000
2014-03-18 00:27:32,0.14,12.67,0.00,24.72,29.77,32.56,5.98,32.46,1017.59,2026.00,943.00,1390.00,1511.04,350.07,322.47,31.98,0000 0000 0000 0000 000000
2014-03-18 00:28:32,0.05,12.67,0.00,24.72,29.77,32.61,6.03,32.54,1017.60,2026.00,942.99,1389.99,1511.01,350.54,322.81,31.99,0000 0000 0000 0000 000000
2014-03-18 00:29:33,0.05,12.67,0.00,24.72,29.77,32.61,6.08,32.54,1017.60,2026.00,942.80,1389.98,1511.00,350.89,323.14,31.99,0000 0000 0000 0000 000000
2014-03-18 00:30:33,0.22,12.67,0.00,24.73,29.77,32.58,5.94,32.54,1017.63,2026.00,942.40,1389.91,1510.99,350.36,322.73,32.00,0000 0000 0000 0000 000000
2014-03-18 00:31:33,0.50,12.68,0.00,24.74,29.77,32.61,6.07,32.50,1017.61,2026.00,942.17,1389.56,1510.90,350.61,322.95,32.01,0000 0000 0000 0000 000000
2014-03-18 00:32:33,0.53,12.68,0.00,24.75,29.77,32.58,6.06,32.71,1017.63,2026.00,942.06,1389.30,1510.59,350.04,322.71,32.01,0000 0000 0000 0000 000000
2014-03-18 00:33:34,0.47,12.68,0.00,24.75,29.77,32.59,5.97,32.50,1017.63,2026.00,942.02,1389.12,1510.25,349.90,322.29,32.02,0000 0000 0000 0000 000000
2014-03-18 00:34:34,0.34,12.69,0.00,24.76,29.77,32.59,6.08,32.75,1017.61,2026.00,942.00,1389.04,1510.10,350.47,322.79,32.02,0000 0000 0000 0000 000000
2014-03-18 00:35:34,0.15,12.69,0.00,24.77,29.77,32.63,5.88,32.42,1017.61,2026.00,941.99,1389.01,1510.03,349.18,321.59,32.03,0000 0000 0000 0000 000000
2014-03-18 00:36:35,0.06,12.69,0.00,24.77,29.77,32.63,6.05,32.54,1017.63,2025.99,941.93,1389.00,1510.01,350.57,322.88,32.04,0000 0000 0000 0000 000000
2014-03-18 00:37:35,0.11,12.69,0.00,24.77,29.78,32.62,6.09,32.50,1017.66,2025.99,941.60,1389.00,1509.98,349.61,321.66,32.04,0000 0000 0000 0000 000000
2014-03-18 00:38:35,0.34,12.69,0.00,24.77,29.78,32.60,6.03,32.42,1017.67,2025.99,941.29,1388.99,1509.97,350.27,322.09,32.05,0000 0000 0000 0000 000000
2014-03-18 00:39:36,0.33,12.69,0.00,24.78,29.79,32.60,6.06,32.50,1017.68,2025.99,941.12,1388.95,1509.92,349.98,322.62,32.05,0000 0000 0000 0000 000000
2014-03-18 00:40:36,0.26,12.69,0.00,24.77,29.79,32.61,6.02,32.38,1017.67,2025.99,941.05,1388.73,1509.67,350.56,322.89,32.06,0000 0000 0000 0000 000000
2014-03-18 00:41:36,0.39,12.70,0.00,24.78,29.80,32.56,6.03,32.50,1017.68,2025.99,941.02,1388.38,1509.31,350.44,322.64,32.07,0000 0000 0000 0000 000000
2014-03-18 00:42:37,0.44,12.70,0.00,24.78,29.80,32.62,6.09,32.63,1017.66,2025.99,941.00,1388.18,1509.11,350.97,323.23,32.07,0000 0000 0000 0000 000000
2014-03-18 00:43:37,0.26,12.70,0.00,24.78,29.80,32.64,6.02,32.38,1017.64,2025.99,940.94,1388.06,1509.04,350.05,322.40,32.08,0000 0000 0000 0000 000000
2014-03-18 00:44:37,0.19,12.70,0.00,24.79,29.80,32.65,5.98,32.54,1017.65,2025.99,940.73,1388.02,1509.01,350.06,322.41,32.08,0000 0000 0000 0000 000000
2014-03-18 00:45:38,0.29,12.70,0.00,24.79,29.80,32.63,5.98,32.50,1017.68,2025.99,940.39,1388.00,1509.00,349.64,322.21,32.09,0000 0000 0000 0000 000000
2014-03-18 00:46:38,0.36,12.70,0.00,24.80,29.80,32.61,5.98,32.46,1017.64,2025.98,940.16,1388.00,1508.98,349.59,321.95,32.09,0000 0000 0000 0000 000000
2014-03-18 00:47:38,0.26,12.71,0.00,24.80,29.80,32.58,6.02,32.33,1017.62,2025.99,940.05,1387.97,1508.88,349.82,322.44,32.10,0000 0000 0000 0000 000000
2014-03-18 00:48:38,0.18,12.71,0.00,24.82,29.80,32.58,5.98,32.25,1017.63,2025.99,940.02,1387.91,1508.65,349.57,321.90,32.11,0000 0000 0000 0000 000000
2014-03-18 00:49:38,0.25,12.71,0.00,24.82,29.80,32.60,5.91,32.25,1017.61,2025.99,940.00,1387.64,1508.32,349.75,322.12,32.11,0000 0000 0000 0000 000000
2014-03-18 00:50:39,0.35,12.71,0.00,24.82,29.80,32.56,5.87,32.29,1017.62,2025.99,939.98,1387.31,1508.13,349.26,321.65,32.12,0000 0000 0000 0000 000000
2014-03-18 00:51:39,0.35,12.71,0.00,24.82,29.80,32.57,6.02,32.38,1017.61,2025.99,939.93,1387.14,1508.05,350.07,322.61,32.12,0000 0000 0000 0000 000000
2014-03-18 00:52:39,0.26,12.71,0.00,24.83,29.80,32.58,5.91,32.50,1017.61,2025.99,939.64,1387.05,1508.02,349.01,321.75,32.13,0000 0000 0000 0000 000000
2014-03-18 00:53:39,0.37,12.72,0.00,24.84,29.80,32.55,6.08,32.54,1017.59,2025.97,939.28,1387.02,1508.00,350.55,322.78,32.14,0000 0000 0000 0000 000000
2014-03-18 00:54:40,0.41,12.72,0.00,24.85,29.80,32.55,5.94,32.42,1017.63,2025.97,939.10,1387.00,1507.97,349.60,322.17,32.14,0000 0000 0000 0000 000000
2014-03-18 00:55:40,0.20,12.72,0.00,24.85,29.81,32.58,5.95,32.33,1017.62,2025.98,939.03,1387.00,1507.92,349.91,322.46,32.15,0000 0000 0000 0000 000000
2014-03-18 00:56:40,0.11,12.72,0.00,24.85,29.81,32.61,6.02,32.42,1017.62,2025.99,939.01,1386.97,1507.72,350.21,322.47,32.15,0000 0000 0000 0000 000000
2014-03-18 00:57:40,0.15,12.72,0.00,24.85,29.81,32.62,6.00,32.33,1017.61,2025.99,938.99,1386.91,1507.42,350.11,322.51,32.16,0000 0000 0000 0000 000000
2014-03-18 00:58:41,0.23,12.72,0.00,24.85,29.82,32.57,6.08,32.25,1017.59,2025.98,938.92,1386.67,1507.17,349.45,321.59,32.16,0000 0000 0000 0000 000000
2014-03-18 00:59:41,0.36,12.73,0.00,24.85,29.82,32.54,6.06,32.46,1017.60,2025.99,938.67,1386.39,1507.06,349.79,322.24,32.17,0000 0000 0000 0000 000000
2014-03-18 01:00:41,0.55,12.73,0.00,24.85,29.82,32.61,6.03,32.63,1017.61,2025.99,938.31,1386.17,1507.02,350.28,322.53,32.18,0000 0000 0000 0000 000000
2014-03-18 01:01:41,0.55,12.73,0.00,24.85,29.82,32.59,6.03,32.38,1017.62,2025.99,938.12,1386.06,1507.00,349.80,322.09,32.18,0000 0000 0000 0000 000000
2014-03-18 01:02:42,0.33,12.73,0.00,24.87,29.82,32.59,5.93,32.50,1017.62,2025.98,938.04,1386.02,1507.00,350.63,322.76,32.19,0000 0000 0000 0000 000000
2014-03-18 01:03:42,0.13,12.73,0.00,24.87,29.82,32.63,5.97,32.75,1017.61,2025.97,938.01,1386.00,1506.97,349.70,321.82,32.19,0000 0000 0000 0000 000000
2014-03-18 01:04:42,0.05,12.73,0.00,24.87,29.82,32.55,6.03,32.38,1017.60,2025.97,938.00,1386.00,1506.80,349.87,322.12,32.20,0000 0000 0000 0000 000000
2014-03-18 01:05:42,0.09,12.73,0.00,24.87,29.82,32.55,5.95,32.13,1017.61,2025.98,937.96,1385.99,1506.46,350.01,322.06,32.21,0000 0000 0000 0000 000000
2014-03-18 01:06:43,0.19,12.74,0.00,24.87,29.82,32.60,6.07,32.54,1017.62,2025.98,937.80,1385.95,1506.22,349.48,321.83,32.21,0000 0000 0000 0000 000000
2014-03-18 01:07:43,0.30,12.74,0.00,24.88,29.82,32.62,5.83,32.38,1017.60,2025.97,937.65,1385.82,1506.09,348.50,320.85,32.22,0000 0000 0000 0000 000000
2014-03-18 01:08:43,0.38,12.74,0.00,24.89,29.82,32.65,5.98,32.38,1017.61,2025.97,937.45,1385.54,1506.03,349.78,322.02,32.22,0000 0000 0000 0000 000000
2014-03-18 01:09:43,0.45,12.74,0.00,24.89,29.83,32.64,6.06,32.50,1017.61,2025.97,937.25,1385.24,1506.01,350.59,322.57,32.23,0000 0000 0000 0000 000000
2014-03-18 01:10:44,0.44,12.74,0.00,24.90,29.84,32.58,5.99,32.42,1017.62,2025.97,937.09,1385.10,1506.00,349.67,321.92,32.24,0000 0000 0000 0000 000000
2014-03-18 01:11:44,0.28,12.75,0.00,24.89,29.85,32.59,5.99,32.33,1017.62,2025.97,937.03,1385.03,1506.00,349.90,322.13,32.24,0000 0000 0000 0000 000000
2014-03-18 01:12:44,0.13,12.75,0.00,24.89,29.85,32.66,6.10,32.50,1017.64,2025.98,937.01,1385.01,1505.95,350.19,322.41,32.25,0000 0000 0000 0000 000000
2014-03-18 01:13:45,0.07,12.75,0.00,24.88,29.85,32.65,6.04,32.33,1017.64,2025.98,936.98,1385.00,1505.78,349.29,321.58,32.25,0000 0000 0000 0000 000000
2014-03-18 01:14:45,0.12,12.75,0.00,24.88,29.85,32.62,6.14,32.50,1017.64,2025.99,936.88,1384.98,1505.45,350.81,322.99,32.26,0000 0000 0000 0000 000000
2014-03-18 01:15:45,0.24,12.75,0.00,24.89,29.85,32.60,5.93,32.38,1017.74,2025.97,936.62,1384.95,1505.23,349.65,321.56,32.26,0000 0000 0000 0000 000000
2014-03-18 01:16:45,0.42,12.75,0.00,24.90,29.85,32.65,5.96,32.50,1017.71,2025.96,936.29,1384.78,1505.08,350.01,322.26,32.27,0000 0000 0000 0000 000000
2014-03-18 01:17:46,0.52,12.76,0.00,24.90,29.85,32.65,6.02,32.29,1017.70,2025.96,936.14,1384.50,1505.03,349.37,321.66,32.28,0000 0000 0000 0000 000000
2014-03-18 01:18:46,0.42,12.76,0.00,24.92,29.85,32.63,6.10,32.50,1017.75,2025.95,936.06,1384.20,1505.00,350.88,322.58,32.28,0000 0000 0000 0000 000000
2014-03-18 01:19:46,0.28,12.76,0.00,24.93,29.86,32.59,5.90,32.38,1017.86,2025.90,936.02,1384.08,1504.96,349.70,321.92,32.29,0000 0000 0000 0000 000000
2014-03-18 01:20:46,0.08,12.76,0.00,24.94,29.87,32.58,5.95,32.46,1017.96,2025.83,935.99,1384.02,1504.88,350.21,322.75,32.29,0000 0000 0000 0000 000000
2014-03-18 01:21:47,0.08,12.76,0.00,24.95,29.87,32.63,5.87,32.42,1017.92,2025.87,935.91,1384.01,1504.60,350.48,322.45,32.30,0000 0000 0000 0000 000000
2014-03-18 01:22:47,0.33,12.76,0.00,24.95,29.87,32.59,6.05,32.46,1017.88,2025.89,935.61,1384.00,1504.28,350.10,322.49,32.31,0000 0000 0000 0000 000000
2014-03-18 01:23:47,0.43,12.77,0.00,24.96,29.87,32.63,6.03,32.42,1017.82,2025.89,935.30,1383.98,1504.11,349.68,321.93,32.31,0000 0000 0000 0000 000000
2014-03-18 01:24:47,0.41,12.77,0.00,24.96,29.87,32.68,6.06,32.50,1017.79,2025.89,935.13,1383.95,1504.04,350.31,322.49,32.32,0000 0000 0000 0000 000000
2014-03-18 01:25:48,0.27,12.77,0.00,24.97,29.87,32.68,6.10,32.33,1017.73,2025.87,935.04,1383.79,1504.01,350.35,322.27,32.32,0000 0000 0000 0000 000000
2014-03-18 01:26:48,0.24,12.77,0.00,24.97,29.88,32.66,6.02,32.42,1017.76,2025.89,935.01,1383.44,1504.00,349.94,321.82,32.33,0000 0000 0000 0000 000000
2014-03-18 01:27:48,0.28,12.77,0.00,24.97,29.89,32.63,6.11,32.58,1017.81,2025.87,934.98,1383.19,1503.99,350.24,322.44,32.33,0000 0000 0000 0000 000000
2014-03-18 01:28:49,0.19,12.77,0.00,24.97,29.89,32.62,6.08,32.54,1017.85,2025.86,934.94,1383.08,1503.97,350.68,322.84,32.34,0000 0000 0000 0000 000000
2014-03-18 01:29:49,0.21,12.78,0.00,24.97,29.90,32.59,6.16,32.46,1017.90,2025.77,934.54,1383.03,1503.73,351.37,323.49,32.35,0000 0000 0000 0000 000000
2014-03-18 01:30:49,0.39,12.78,0.00,24.97,29.90,32.61,5.97,32.63,1017.94,2025.65,934.25,1383.01,1503.42,349.63,321.68,32.35,0000 0000 0000 0000 000000
2014-03-18 01:31:49,0.34,12.78,0.00,24.98,29.90,32.63,6.08,33.04,1017.95,2025.69,934.11,1383.00,1503.20,349.44,322.03,32.36,0000 0000 0000 0000 000000
2014-03-18 01:32:50,0.25,12.78,0.00,24.99,29.90,32.67,6.03,32.42,1017.90,2025.62,934.03,1382.99,1503.08,350.87,322.67,32.36,0000 0000 0000 0000 000000
2014-03-18 01:33:50,0.08,12.78,0.00,25.00,29.90,32.67,5.92,32.46,1017.86,2025.55,934.01,1382.89,1503.03,349.06,321.34,32.37,0000 0000 0000 0000 000000
2014-03-18 01:34:50,0.06,12.78,0.00,25.00,29.90,32.63,5.96,32.67,1017.81,2025.48,933.99,1382.64,1503.01,350.55,322.64,32.38,0000 0000 0000 0000 000000
2014-03-18 01:35:50,0.14,12.78,0.00,25.00,29.92,32.66,6.00,32.29,1017.81,2025.48,933.99,1382.37,1502.99,350.60,322.62,32.38,0000 0000 0000 0000 000000
2014-03-18 01:36:51,0.11,12.78,0.00,25.01,29.92,32.66,5.92,32.42,1017.82,2025.29,933.99,1382.16,1502.92,349.65,322.27,32.39,0000 0000 0000 0000 000000
2014-03-18 01:37:51,0.03,12.78,0.00,25.02,29.92,32.71,6.02,32.33,1017.82,2025.21,933.85,1382.06,1502.67,349.80,322.11,32.39,0000 0000 0000 0000 000000
2014-03-18 01:38:51,0.22,12.79,0.00,25.02,29.92,32.68,6.19,32.58,1017.90,2025.21,933.49,1382.02,1502.33,350.67,322.53,32.40,0000 0000 0000 0000 000000
2014-03-18 01:39:51,0.60,12.79,0.00,25.02,29.92,32.68,6.19,32.71,1017.86,2025.22,933.22,1382.00,1502.15,351.17,322.88,32.41,0000 0000 0000 0000 000000
2014-03-18 01:40:52,0.36,12.79,0.00,25.03,29.92,32.67,6.02,32.29,1017.82,2025.13,933.10,1381.99,1502.05,350.16,322.28,32.41,0000 0000 0000 0000 000000
2014-03-18 01:41:52,0.09,12.79,0.00,25.04,29.92,32.63,5.93,32.46,1017.78,2025.10,933.17,1381.98,1502.02,349.64,322.20,32.42,0000 0000 0000 0000 000000
2014-03-18 01:42:52,-0.06,12.79,0.00,25.04,29.93,32.66,6.08,32.54,1017.76,2025.06,933.10,1381.95,1502.00,350.48,322.56,32.42,0000 0000 0000 0000 000000
2014-03-18 01:43:52,0.03,12.79,0.00,25.04,29.94,32.66,6.05,32.29,1017.76,2025.08,933.03,1381.80,1502.00,349.88,322.00,32.43,0000 0000 0000 0000 000000
2014-03-18 01:44:53,0.16,12.79,0.00,25.04,29.95,32.61,6.01,32.33,1017.75,2025.07,932.97,1381.52,1501.98,350.00,322.45,32.43,0000 0000 0000 0000 000000
2014-03-18 01:45:53,0.29,12.79,0.00,25.05,29.95,32.58,5.98,32.50,1017.75,2025.06,932.98,1381.25,1501.93,349.46,321.61,32.44,0000 0000 0000 0000 000000
2014-03-18 01:46:53,0.25,12.80,0.00,25.05,29.95,32.62,6.03,32.50,1017.73,2025.03,932.93,1381.16,1501.64,350.13,322.22,32.45,0000 0000 0000 0000 000000
2014-03-18 01:47:54,0.25,12.80,0.00,25.05,29.95,32.64,5.91,32.50,1017.73,2025.02,932.55,1381.07,1501.30,350.05,322.14,32.45,0000 0000 0000 0000 000000
2014-03-18 01:48:54,0.59,12.80,0.00,25.05,29.95,32.64,6.03,32.25,1017.69,2025.03,932.23,1381.02,1501.11,349.82,321.91,32.46,0000 0000 0000 0000 000000
2014-03-18 01:49:54,0.49,12.80,0.00,25.05,29.95,32.65,5.94,32.54,1017.66,2025.02,932.08,1381.00,1501.04,349.36,321.48,32.46,0000 0000 0000 0000 000000
2014-03-18 01:50:54,0.20,12.80,0.00,25.06,29.95,32.70,5.88,32.29,1017.63,2025.00,932.02,1380.99,1501.01,350.10,322.14,32.47,0000 0000 0000 0000 000000
2014-03-18 01:51:55,0.06,12.81,0.00,25.07,29.96,32.68,6.00,32.29,1017.67,2025.00,931.99,1380.95,1501.00,350.12,322.04,32.48,0000 0000 0000 0000 000000
2014-03-18 01:52:55,0.07,12.81,0.00,25.07,29.97,32.70,6.06,32.42,1017.67,2025.00,931.94,1380.78,1500.98,349.83,322.37,32.48,0000 0000 0000 0000 000000
2014-03-18 01:53:55,0.18,12.81,0.00,25.07,29.97,32.70,6.03,32.08,1017.65,2025.00,931.83,1380.47,1500.90,350.02,322.12,32.49,0000 0000 0000 0000 000000
2014-03-18 01:54:55,0.42,12.81,0.00,25.07,29.97,32.72,6.04,32.58,1017.64,2025.00,931.59,1380.27,1500.57,350.68,322.67,32.49,0000 0000 0000 0000 000000
2014-03-18 01:55:56,0.64,12.81,0.00,25.08,29.97,32.73,5.97,32.67,1017.66,2025.00,931.25,1380.12,1500.23,349.98,322.13,32.50,0000 0000 0000 0000 000000
2014-03-18 01:56:56,0.59,12.82,0.00,25.09,29.97,32.70,6.14,32.42,1017.63,2025.01,931.09,1380.04,1500.09,350.90,322.67,32.50,0000 0000 0000 0000 000000
2014-03-18 01:57:56,0.29,12.82,0.00,25.10,29.97,32.73,6.00,32.46,1017.63,2025.00,931.02,1380.01,1500.03,349.60,321.79,32.51,0000 0000 0000 0000 000000
2014-03-18 01:58:57,0.11,12.82,0.00,25.10,29.98,32.75,5.93,32.46,1017.62,2025.01,930.98,1379.99,1500.01,349.92,321.94,32.52,0000 0000 0000 0000 000000
2014-03-18 01:59:57,0.06,12.82,0.00,25.11,29.98,32.71,6.08,32.54,1017.63,2025.00,930.63,1379.95,1500.00,349.97,321.83,32.52,0000 0000 0000 0000 000000
2014-03-18 02:00:57,0.42,12.82,0.00,25.12,30.00,32.71,5.98,32.50,1017.63,2025.00,930.35,1379.91,1499.97,350.41,322.51,32.53,0000 0000 0000 0000 000000
2014-03-18 02:01:57,0.39,12.82,0.00,25.12,30.00,32.72,5.98,32.29,1017.63,2025.01,930.18,1379.73,1499.84,349.39,321.32,32.53,0000 0000 0000 0000 000000
2014-03-18 02:02:57,0.45,12.83,0.00,25.12,30.00,32.69,6.07,32.33,1017.63,2025.00,930.07,1379.38,1499.44,350.29,321.94,32.54,0000 0000 0000 0000 000000
2014-03-18 02:03:58,0.53,12.83,0.00,25.14,30.00,32.67,6.02,32.58,1017.66,2025.00,930.02,1379.14,1499.17,348.79,321.18,32.55,0000 0000 0000 0000 000000
2014-03-18 02:04:58,0.33,12.83,0.00,25.15,30.00,32.68,6.07,32.50,1017.71,2025.00,930.00,1379.05,1499.06,350.49,322.43,32.55,0000 0000 0000 0000 000000
2014-03-18 02:05:58,0.14,12.83,0.00,25.15,30.00,32.67,6.00,32.38,1017.70,2025.00,929.91,1379.02,1499.02,349.97,321.95,32.56,0000 0000 0000 0000 000000
2014-03-18 02:06:58,0.18,12.83,0.00,25.15,30.00,32.68,6.08,32.50,1017.69,2025.00,929.66,1379.00,1499.00,350.44,322.38,32.56,0000 0000 0000 0000 000000
2014-03-18 02:07:59,0.29,12.84,0.00,25.15,30.01,32.71,5.98,32.33,1017.67,2025.00,929.44,1378.98,1498.99,350.10,322.05,32.57,0000 0000 0000 0000 000000
2014-03-18 02:08:59,0.29,12.84,0.00,25.17,30.02,32.71,6.05,32.33,1017.67,2025.00,929.17,1378.95,1498.95,349.83,321.70,32.58,0000 0000 0000 0000 000000
2014-03-18 02:09:59,0.29,12.84,0.00,25.17,30.02,32.68,6.01,32.33,1017.71,2025.00,929.07,1378.91,1498.81,349.96,322.14,32.58,0000 0000 0000 0000 000000
2014-03-18 02:11:00,0.22,12.84,0.00,25.17,30.02,32.66,5.99,32.50,1017.72,2025.00,929.02,1378.75,1498.55,348.63,321.02,32.59,0000 0000 0000 0000 000000
2014-03-18 02:12:00,0.32,12.84,0.00,25.19,30.02,32.67,6.07,32.33,1017.72,2025.00,929.00,1378.42,1498.26,350.47,322.37,32.59,0000 0000 0000 0000 000000
2014-03-18 02:13:00,0.42,12.84,0.00,25.20,30.02,32.73,6.01,32.38,1017.70,2025.00,929.00,1378.22,1498.13,350.57,322.77,32.60,0000 0000 0000 0000 000000
2014-03-18 02:14:00,0.21,12.85,0.00,25.20,30.03,32.74,5.95,32.58,1017.72,2025.00,928.99,1378.09,1498.05,349.56,321.73,32.60,0000 0000 0000 0000 000000
2014-03-18 02:15:00,0.14,12.85,0.00,25.20,30.03,32.72,6.02,32.33,1017.78,2025.00,928.95,1378.03,1498.01,350.50,322.13,32.61,0000 0000 0000 0000 000000
2014-03-18 02:16:01,0.13,12.85,0.00,25.21,30.05,32.72,5.94,32.79,1017.81,2025.00,928.67,1378.01,1497.99,350.43,322.67,32.62,0000 0000 0000 0000 000000
2014-03-18 02:17:01,0.34,12.85,0.00,25.22,30.05,32.75,5.95,32.54,1017.80,2025.00,928.32,1378.00,1497.98,349.48,321.46,32.62,0000 0000 0000 0000 000000
2014-03-18 02:18:01,0.37,12.85,0.00,25.22,30.05,32.72,5.95,32.42,1017.78,2025.00,928.13,1377.96,1497.84,349.93,321.86,32.63,0000 0000 0000 0000 000000
2014-03-18 02:19:01,0.29,12.85,0.00,25.22,30.05,32.72,6.07,32.50,1017.82,2025.00,928.04,1377.90,1497.53,351.23,323.06,32.63,0000 0000 0000 0000 000000
2014-03-18 02:20:02,0.28,12.86,0.00,25.22,30.05,32.73,5.95,32.58,1017.83,2025.00,928.01,1377.70,1497.24,350.82,322.69,32.64,0000 0000 0000 0000 000000
2014-03-18 02:21:02,0.35,12.86,0.00,25.22,30.05,32.73,5.95,32.38,1017.77,2025.00,927.99,1377.42,1497.09,349.93,321.88,32.65,0000 0000 0000 0000 000000
2014-03-18 02:22:02,0.29,12.86,0.00,25.23,30.06,32.74,6.07,32.25,1017.69,2025.00,927.96,1377.19,1497.03,350.39,322.25,32.65,0000 0000 0000 0000 000000
2014-03-18 02:23:02,0.25,12.86,0.00,25.24,30.07,32.78,5.93,32.50,1017.74,2025.00,927.90,1377.08,1497.01,349.15,321.11,32.66,0000 0000 0000 0000 000000
2014-03-18 02:24:03,0.18,12.86,0.00,25.25,30.07,32.77,5.99,32.58,1017.83,2025.00,927.58,1377.02,1497.00,350.46,322.33,32.66,0000 0000 0000 0000 000000
2014-03-18 02:25:03,0.41,12.86,0.00,25.25,30.07,32.76,6.07,32.42,1017.78,2025.00,927.24,1377.01,1497.00,349.91,321.82,32.67,0000 0000 0000 0000 000000
2014-03-18 02:26:03,0.35,12.87,0.00,25.25,30.07,32.75,5.88,32.21,1017.72,2024.97,927.09,1376.99,1496.90,349.70,321.61,32.67,0000 0000 0000 0000 000000
2014-03-18 02:27:03,0.20,12.87,0.00,25.25,30.08,32.76,5.89,32.33,1017.69,2024.96,927.03,1376.98,1496.63,349.39,321.63,32.68,0000 0000 0000 0000 000000
2014-03-18 02:28:04,0.19,12.87,0.00,25.25,30.08,32.79,6.04,32.58,1017.68,2024.96,927.01,1376.95,1496.31,350.21,322.06,32.69,0000 0000 0000 0000 000000
2014-03-18 02:29:04,0.20,12.87,0.00,25.27,30.10,32.80,5.84,32.42,1017.69,2024.97,926.97,1376.73,1496.12,349.15,321.07,32.69,0000 0000 0000 0000 000000
2014-03-18 02:30:04,0.27,12.87,0.00,25.27,30.10,32.79,6.04,32.46,1017.73,2024.95,926.79,1376.36,1496.04,350.08,321.93,32.70,0000 0000 0000 0000 000000
2014-03-18 02:31:05,0.54,12.87,0.00,25.28,30.10,32.76,6.08,32.63,1017.70,2024.94,926.47,1376.17,1496.01,350.90,322.65,32.70,0000 0000 0000 0000 000000
2014-03-18 02:32:05,0.50,12.88,0.00,25.30,30.10,32.79,5.88,32.38,1017.69,2024.93,926.20,1376.06,1495.99,349.42,321.44,32.71,0000 0000 0000 0000 000000
2014-03-18 02:33:05,0.38,12.88,0.00,25.30,30.10,32.78,6.01,32.25,1017.71,2024.93,926.08,1376.02,1495.98,350.28,322.07,32.72,0000 0000 0000 0000 000000
2014-03-18 02:34:05,0.16,12.88,0.00,25.30,30.11,32.76,5.97,32.38,1017.71,2024.94,926.02,1376.00,1495.94,350.40,322.19,32.72,0000 0000 0000 0000 000000
2014-03-18 02:35:06,0.05,12.88,0.00,25.30,30.12,32.78,6.01,32.58,1017.72,2024.96,926.01,1376.00,1495.87,350.42,322.21,32.73,0000 0000 0000 0000 000000
2014-03-18 02:36:06,0.11,12.88,0.00,25.30,30.12,32.76,5.98,32.42,1017.76,2024.94,926.00,1375.99,1495.55,350.06,321.28,32.73,0000 0000 0000 0000 000000